Wetterdaten: Freitag, 16.10.2015
Datum Zeit Auen-Temp. Temp gefhlt Luftfeuchte Luftdruck Regen Wind Richtung Richtung Taupunkt Windben
16.10.2015 00:00 3,1 C 3,0 C 89 % 1013,9 hPa 0,0 mm 0,0 km/h (0 Bft) W 270 1,5 C 0,0 km/h (0 Bft)
16.10.2015 00:05 3,1 C 3,0 C 89 % 1013,9 hPa 0,0 mm 0,0 km/h (0 Bft) W-SW 247 1,5 C 0,0 km/h (0 Bft)
16.10.2015 00:10 3,1 C 3,0 C 89 % 1013,7 hPa 0,0 mm 0,0 km/h (0 Bft) W 270 1,5 C 0,0 km/h (0 Bft)
16.10.2015 00:15 3,1 C 3,0 C 89 % 1013,7 hPa 0,0 mm 0,0 km/h (0 Bft) W-SW 247 1,5 C 0,0 km/h (0 Bft)
16.10.2015 00:20 3,1 C 3,0 C 89 % 1013,7 hPa 0,0 mm 1,0 km/h (0 Bft) SW 225 1,5 C 3,6 km/h (1 Bft)
16.10.2015 00:25 3,1 C 3,0 C 89 % 1013,7 hPa 0,0 mm 1,6 km/h (1 Bft) W-SW 247 1,5 C 0,0 km/h (0 Bft)
16.10.2015 00:30 3,1 C 3,0 C 89 % 1013,9 hPa 0,0 mm 1,0 km/h (0 Bft) NW 315 1,5 C 0,0 km/h (0 Bft)
16.10.2015 00:35 3,1 C 3,0 C 89 % 1013,9 hPa 0,0 mm 0,0 km/h (0 Bft) NW 315 1,5 C 0,0 km/h (0 Bft)
16.10.2015 00:40 3,2 C 3,1 C 89 % 1013,9 hPa 0,0 mm 0,0 km/h (0 Bft) NW 315 1,6 C 0,0 km/h (0 Bft)
16.10.2015 00:45 3,1 C 3,0 C 89 % 1013,9 hPa 0,0 mm 0,0 km/h (0 Bft) NW 315 1,5 C 0,0 km/h (0 Bft)
16.10.2015 00:50 3,2 C 3,1 C 92 % 1013,8 hPa 0,0 mm 0,0 km/h (0 Bft) NW 315 2,0 C 0,0 km/h (0 Bft)
16.10.2015 00:55 3,2 C 3,1 C 92 % 1013,8 hPa 0,0 mm 0,0 km/h (0 Bft) NW 315 2,0 C 0,0 km/h (0 Bft)
16.10.2015 01:00 3,2 C 3,1 C 89 % 1013,8 hPa 0,0 mm 0,0 km/h (0 Bft) W-NW 292 1,6 C 0,0 km/h (0 Bft)
16.10.2015 01:05 3,2 C 3,1 C 92 % 1013,8 hPa 0,0 mm 0,0 km/h (0 Bft) NW 315 2,0 C 0,0 km/h (0 Bft)
16.10.2015 01:10 3,2 C 3,1 C 92 % 1013,8 hPa 0,0 mm 0,0 km/h (0 Bft) NW 315 2,0 C 0,0 km/h (0 Bft)
16.10.2015 01:15 3,1 C 3,0 C 89 % 1013,8 hPa 0,0 mm 0,0 km/h (0 Bft) W 270 1,5 C 0,0 km/h (0 Bft)
16.10.2015 01:20 3,1 C 3,0 C 89 % 1013,8 hPa 0,0 mm 0,0 km/h (0 Bft) SW 225 1,5 C 0,0 km/h (0 Bft)
16.10.2015 01:25 3,1 C 3,0 C 89 % 1013,8 hPa 0,0 mm 0,0 km/h (0 Bft) W-SW 247 1,5 C 0,0 km/h (0 Bft)
16.10.2015 01:30 3,1 C 3,0 C 89 % 1013,8 hPa 0,0 mm 0,0 km/h (0 Bft) W-SW 247 1,5 C 0,0 km/h (0 Bft)
16.10.2015 01:35 3,1 C 3,0 C 89 % 1013,8 hPa 0,0 mm 0,0 km/h (0 Bft) SW 225 1,5 C 0,0 km/h (0 Bft)
16.10.2015 01:40 3,1 C 3,0 C 89 % 1013,8 hPa 0,0 mm 0,0 km/h (0 Bft) SW 225 1,5 C 0,0 km/h (0 Bft)
16.10.2015 01:45 3,1 C 3,0 C 89 % 1013,8 hPa 0,0 mm 0,0 km/h (0 Bft) SW 225 1,5 C 0,0 km/h (0 Bft)
16.10.2015 01:50 3,1 C 3,0 C 89 % 1013,8 hPa 0,0 mm 0,0 km/h (0 Bft) S-SW 202 1,5 C 0,0 km/h (0 Bft)
16.10.2015 01:55 3,1 C 3,0 C 89 % 1013,8 hPa 0,0 mm 0,0 km/h (0 Bft) S-SW 202 1,5 C 0,0 km/h (0 Bft)
16.10.2015 02:00 3,2 C 3,1 C 89 % 1013,8 hPa 0,0 mm 0,0 km/h (0 Bft) S-SW 202 1,6 C 0,0 km/h (0 Bft)
16.10.2015 02:05 3,1 C 3,0 C 89 % 1013,8 hPa 0,0 mm 0,0 km/h (0 Bft) W-SW 247 1,5 C 0,0 km/h (0 Bft)
16.10.2015 02:10 3,1 C 3,0 C 89 % 1013,6 hPa 0,0 mm 0,0 km/h (0 Bft) SW 225 1,5 C 0,0 km/h (0 Bft)
16.10.2015 02:15 3,1 C 3,0 C 89 % 1013,6 hPa 0,0 mm 0,0 km/h (0 Bft) SW 225 1,5 C 0,0 km/h (0 Bft)
16.10.2015 02:20 3,2 C 3,1 C 89 % 1013,6 hPa 0,0 mm 0,0 km/h (0 Bft) SW 225 1,6 C 0,0 km/h (0 Bft)
16.10.2015 02:25 3,2 C 3,1 C 89 % 1013,6 hPa 0,0 mm 0,0 km/h (0 Bft) SW 225 1,6 C 0,0 km/h (0 Bft)
16.10.2015 02:30 3,2 C 3,0 C 92 % 1013,6 hPa 0,0 mm 0,0 km/h (0 Bft) S 180 2,0 C 0,0 km/h (0 Bft)
16.10.2015 02:35 3,2 C 3,0 C 92 % 1013,6 hPa 0,0 mm 0,0 km/h (0 Bft) O-SO 112 2,0 C 0,0 km/h (0 Bft)
16.10.2015 02:40 3,1 C 3,0 C 89 % 1013,6 hPa 0,0 mm 0,0 km/h (0 Bft) O-SO 112 1,5 C 0,0 km/h (0 Bft)
16.10.2015 02:45 3,2 C 3,1 C 89 % 1013,6 hPa 0,0 mm 0,0 km/h (0 Bft) O 90 1,6 C 2,6 km/h (1 Bft)
16.10.2015 02:50 3,2 C 3,1 C 89 % 1013,5 hPa 0,0 mm 0,0 km/h (0 Bft) O-NO 67 1,6 C 0,0 km/h (0 Bft)
16.10.2015 02:55 3,2 C 3,1 C 89 % 1013,5 hPa 0,0 mm 0,0 km/h (0 Bft) NW 315 1,6 C 0,0 km/h (0 Bft)
16.10.2015 03:00 3,2 C 3,1 C 89 % 1013,5 hPa 0,0 mm 0,0 km/h (0 Bft) S-SO 157 1,6 C 0,0 km/h (0 Bft)
16.10.2015 03:05 3,2 C 3,1 C 89 % 1013,5 hPa 0,0 mm 0,0 km/h (0 Bft) O-SO 112 1,6 C 0,0 km/h (0 Bft)
16.10.2015 03:07 3,2 C 3,1 C 89 % 1013,5 hPa 0,0 mm 0,0 km/h (0 Bft) O-SO 112 1,6 C 0,0 km/h (0 Bft)
16.10.2015 03:10 3,1 C 3,0 C 89 % 1013,5 hPa 0,0 mm 0,0 km/h (0 Bft) SO 135 1,5 C 0,0 km/h (0 Bft)
16.10.2015 03:15 3,1 C 3,0 C 89 % 1013,5 hPa 0,0 mm 0,0 km/h (0 Bft) SO 135 1,5 C 0,0 km/h (0 Bft)
16.10.2015 03:20 3,1 C 3,0 C 89 % 1013,5 hPa 0,0 mm 0,0 km/h (0 Bft) S 180 1,5 C 0,0 km/h (0 Bft)
16.10.2015 03:25 3,1 C 3,0 C 89 % 1013,5 hPa 0,0 mm 0,0 km/h (0 Bft) SO 135 1,5 C 0,0 km/h (0 Bft)
16.10.2015 03:30 3,1 C 3,0 C 89 % 1013,4 hPa 0,0 mm 0,0 km/h (0 Bft) S 180 1,5 C 0,0 km/h (0 Bft)
16.10.2015 03:35 3,1 C 3,0 C 89 % 1013,4 hPa 0,0 mm 0,0 km/h (0 Bft) S-SO 157 1,5 C 0,0 km/h (0 Bft)
16.10.2015 03:40 3,1 C 3,0 C 89 % 1013,4 hPa 0,0 mm 0,0 km/h (0 Bft) S 180 1,5 C 0,0 km/h (0 Bft)
16.10.2015 03:45 3,1 C 3,0 C 89 % 1013,4 hPa 0,0 mm 0,0 km/h (0 Bft) SO 135 1,5 C 0,0 km/h (0 Bft)
16.10.2015 03:50 3,1 C 3,0 C 89 % 1012,9 hPa 0,0 mm 0,0 km/h (0 Bft) S-SO 157 1,5 C 0,0 km/h (0 Bft)
16.10.2015 03:55 3,1 C 3,0 C 89 % 1012,9 hPa 0,0 mm 0,0 km/h (0 Bft) S-SO 157 1,5 C 0,0 km/h (0 Bft)
16.10.2015 04:00 3,1 C 3,0 C 89 % 1012,9 hPa 0,0 mm 0,0 km/h (0 Bft) SO 135 1,5 C 0,0 km/h (0 Bft)
16.10.2015 04:05 3,1 C 3,0 C 89 % 1012,9 hPa 0,0 mm 0,0 km/h (0 Bft) SO 135 1,5 C 0,0 km/h (0 Bft)
16.10.2015 04:10 3,1 C 3,0 C 89 % 1013,4 hPa 0,0 mm 0,0 km/h (0 Bft) S 180 1,5 C 0,0 km/h (0 Bft)
16.10.2015 04:15 3,1 C 3,0 C 89 % 1013,4 hPa 0,0 mm 0,5 km/h (0 Bft) N-NO 22 1,5 C 4,9 km/h (1 Bft)
16.10.2015 04:20 3,1 C 3,0 C 89 % 1013,4 hPa 0,0 mm 1,0 km/h (0 Bft) NO 45 1,5 C 0,0 km/h (0 Bft)
16.10.2015 04:25 3,1 C 2,9 C 92 % 1013,4 hPa 0,0 mm 2,3 km/h (1 Bft) N-NW 337 1,9 C 2,6 km/h (1 Bft)
16.10.2015 04:30 3,1 C 3,0 C 89 % 1013,1 hPa 0,0 mm 1,8 km/h (1 Bft) NO 45 1,5 C 6,2 km/h (2 Bft)
16.10.2015 04:35 3,1 C 2,9 C 92 % 1013,1 hPa 0,0 mm 2,1 km/h (1 Bft) NO 45 1,9 C 0,0 km/h (0 Bft)
16.10.2015 04:40 3,1 C 2,9 C 92 % 1013,1 hPa 0,0 mm 2,6 km/h (1 Bft) NO 45 1,9 C 5,2 km/h (1 Bft)
16.10.2015 04:45 3,1 C 2,9 C 92 % 1013,1 hPa 0,7 mm 3,1 km/h (1 Bft) O-NO 67 1,9 C 2,8 km/h (1 Bft)
16.10.2015 04:50 3,0 C 2,9 C 89 % 1013,3 hPa 0,0 mm 2,8 km/h (1 Bft) N-NW 337 1,4 C 7,3 km/h (2 Bft)
16.10.2015 04:55 3,1 C 2,9 C 92 % 1013,3 hPa 0,0 mm 2,1 km/h (1 Bft) NO 45 1,9 C 4,9 km/h (1 Bft)
16.10.2015 05:00 3,1 C 2,9 C 92 % 1013,3 hPa 0,0 mm 2,6 km/h (1 Bft) NW 315 1,9 C 4,1 km/h (1 Bft)
16.10.2015 05:05 3,0 C 2,9 C 92 % 1013,3 hPa 0,0 mm 2,8 km/h (1 Bft) NO 45 1,8 C 0,0 km/h (0 Bft)
16.10.2015 05:10 3,0 C 2,8 C 92 % 1013,4 hPa 0,0 mm 3,4 km/h (1 Bft) O-NO 67 1,8 C 9,3 km/h (2 Bft)
16.10.2015 05:15 2,9 C 2,8 C 93 % 1013,4 hPa 0,0 mm 3,6 km/h (1 Bft) N-NO 22 1,9 C 0,0 km/h (0 Bft)
16.10.2015 05:20 2,9 C 2,8 C 93 % 1013,4 hPa 0,0 mm 4,1 km/h (1 Bft) O 90 1,9 C 12,2 km/h (2 Bft)
16.10.2015 05:25 2,9 C 2,7 C 93 % 1013,4 hPa 0,0 mm 1,6 km/h (1 Bft) O 90 1,9 C 0,0 km/h (0 Bft)
16.10.2015 05:30 2,9 C 2,7 C 93 % 1013,6 hPa 0,0 mm 0,8 km/h (0 Bft) SO 135 1,9 C 2,6 km/h (1 Bft)
16.10.2015 05:35 2,7 C 2,6 C 90 % 1013,6 hPa 0,0 mm 1,3 km/h (1 Bft) N-NW 337 1,2 C 2,6 km/h (1 Bft)
16.10.2015 05:40 2,7 C 2,6 C 90 % 1013,6 hPa 0,0 mm 1,8 km/h (1 Bft) N-NO 22 1,2 C 5,4 km/h (1 Bft)
16.10.2015 05:45 2,7 C 2,6 C 90 % 1013,6 hPa 0,0 mm 1,8 km/h (1 Bft) N-NO 22 1,2 C 0,0 km/h (0 Bft)
16.10.2015 05:50 2,6 C 2,5 C 90 % 1013,6 hPa 0,0 mm 2,8 km/h (1 Bft) NW 315 1,1 C 6,2 km/h (2 Bft)
16.10.2015 05:55 2,6 C 2,5 C 90 % 1013,6 hPa 0,0 mm 3,1 km/h (1 Bft) N-NW 337 1,1 C 0,0 km/h (0 Bft)
16.10.2015 06:00 2,6 C 2,5 C 90 % 1013,6 hPa 0,0 mm 2,6 km/h (1 Bft) N 360 1,1 C 3,6 km/h (1 Bft)
16.10.2015 06:05 2,6 C 2,5 C 90 % 1013,6 hPa 0,0 mm 1,6 km/h (1 Bft) N-NO 22 1,1 C 3,1 km/h (1 Bft)
16.10.2015 06:10 2,6 C 2,5 C 90 % 1013,8 hPa 0,7 mm 1,6 km/h (1 Bft) NO 45 1,1 C 4,1 km/h (1 Bft)
16.10.2015 06:15 2,5 C 2,4 C 90 % 1013,8 hPa 0,0 mm 1,8 km/h (1 Bft) NO 45 1,0 C 0,0 km/h (0 Bft)
16.10.2015 06:20 2,5 C 2,4 C 90 % 1013,8 hPa 0,0 mm 2,3 km/h (1 Bft) NO 45 1,0 C 3,1 km/h (1 Bft)
16.10.2015 06:25 2,5 C 2,4 C 90 % 1013,8 hPa 0,0 mm 0,8 km/h (0 Bft) N-NW 337 1,0 C 2,6 km/h (1 Bft)
16.10.2015 06:30 2,5 C 2,4 C 90 % 1013,8 hPa 0,0 mm 1,6 km/h (1 Bft) O 90 1,0 C 3,9 km/h (1 Bft)
16.10.2015 06:35 2,5 C 2,4 C 90 % 1013,8 hPa 0,0 mm 1,6 km/h (1 Bft) O-NO 67 1,0 C 0,0 km/h (0 Bft)
16.10.2015 06:40 2,5 C 2,4 C 90 % 1013,8 hPa 0,0 mm 0,8 km/h (0 Bft) N-NW 337 1,0 C 0,0 km/h (0 Bft)
16.10.2015 06:45 2,5 C 2,4 C 90 % 1013,8 hPa 0,0 mm 0,3 km/h (0 Bft) N 360 1,0 C 0,0 km/h (0 Bft)
16.10.2015 06:50 2,5 C 2,4 C 90 % 1013,7 hPa 0,0 mm 0,3 km/h (0 Bft) O-NO 67 1,0 C 0,0 km/h (0 Bft)
16.10.2015 06:55 2,5 C 2,4 C 90 % 1013,7 hPa 0,0 mm 0,3 km/h (0 Bft) NO 45 1,0 C 0,0 km/h (0 Bft)
16.10.2015 07:00 2,5 C 2,4 C 90 % 1013,7 hPa 0,0 mm 0,0 km/h (0 Bft) O 90 1,0 C 0,0 km/h (0 Bft)
16.10.2015 07:05 2,4 C 2,3 C 90 % 1013,7 hPa 0,0 mm 0,0 km/h (0 Bft) O 90 0,9 C 0,0 km/h (0 Bft)
16.10.2015 07:10 2,4 C 2,3 C 90 % 1013,8 hPa 0,0 mm 0,0 km/h (0 Bft) SO 135 0,9 C 0,0 km/h (0 Bft)
16.10.2015 07:15 2,4 C 2,2 C 93 % 1013,8 hPa 0,7 mm 0,0 km/h (0 Bft) O-NO 67 1,4 C 0,0 km/h (0 Bft)
16.10.2015 07:20 2,4 C 2,2 C 93 % 1013,8 hPa 0,0 mm 0,0 km/h (0 Bft) O-SO 112 1,4 C 0,0 km/h (0 Bft)
16.10.2015 07:25 2,3 C 2,2 C 90 % 1013,8 hPa 0,0 mm 0,0 km/h (0 Bft) SO 135 0,8 C 0,0 km/h (0 Bft)
16.10.2015 07:30 2,3 C 2,2 C 90 % 1013,8 hPa 0,0 mm 0,0 km/h (0 Bft) O-SO 112 0,8 C 0,0 km/h (0 Bft)
16.10.2015 07:35 2,3 C 2,2 C 90 % 1013,8 hPa 0,0 mm 0,0 km/h (0 Bft) S-SO 157 0,8 C 0,0 km/h (0 Bft)
16.10.2015 07:45 2,2 C 2,1 C 90 % 1013,8 hPa 0,0 mm 0,0 km/h (0 Bft) S-SO 157 0,7 C 0,0 km/h (0 Bft)
16.10.2015 07:50 2,2 C 2,1 C 90 % 1014,1 hPa 0,0 mm 0,0 km/h (0 Bft) S-SO 157 0,7 C 0,0 km/h (0 Bft)
16.10.2015 07:55 2,2 C 2,1 C 90 % 1014,1 hPa 0,0 mm 0,0 km/h (0 Bft) S-SO 157 0,7 C 0,0 km/h (0 Bft)
16.10.2015 08:00 2,2 C 2,1 C 90 % 1014,1 hPa 0,7 mm 0,0 km/h (0 Bft) W 270 0,7 C 2,8 km/h (1 Bft)
16.10.2015 08:05 2,2 C 2,1 C 90 % 1014,1 hPa 0,0 mm 0,5 km/h (0 Bft) NW 315 0,7 C 3,6 km/h (1 Bft)
16.10.2015 08:10 2,2 C 2,1 C 90 % 1013,9 hPa 0,0 mm 1,8 km/h (1 Bft) NW 315 0,7 C 3,6 km/h (1 Bft)
16.10.2015 08:15 2,1 C 2,0 C 90 % 1013,9 hPa 0,0 mm 3,9 km/h (1 Bft) W 270 0,6 C 4,7 km/h (1 Bft)
16.10.2015 08:20 1,9 C 1,9 C 90 % 1013,9 hPa 0,0 mm 3,9 km/h (1 Bft) W 270 0,4 C 5,4 km/h (1 Bft)
16.10.2015 08:25 1,9 C 1,9 C 90 % 1013,9 hPa 0,0 mm 2,3 km/h (1 Bft) W 270 0,4 C 0,0 km/h (0 Bft)
16.10.2015 08:30 2,0 C 1,9 C 90 % 1014,2 hPa 0,0 mm 1,3 km/h (1 Bft) W 270 0,5 C 3,4 km/h (1 Bft)
16.10.2015 08:35 2,0 C 1,9 C 90 % 1014,2 hPa 0,0 mm 0,3 km/h (0 Bft) W 270 0,5 C 3,1 km/h (1 Bft)
16.10.2015 08:40 1,9 C 1,9 C 90 % 1014,2 hPa 0,0 mm 0,8 km/h (0 Bft) W 270 0,4 C 5,2 km/h (1 Bft)
16.10.2015 08:45 1,9 C 1,9 C 90 % 1014,2 hPa 0,0 mm 1,0 km/h (0 Bft) W-SW 247 0,4 C 0,0 km/h (0 Bft)
16.10.2015 08:50 1,9 C 1,9 C 91 % 1014,4 hPa 0,0 mm 0,5 km/h (0 Bft) W-SW 247 0,6 C 0,0 km/h (0 Bft)
16.10.2015 08:55 2,0 C 2,0 C 90 % 1014,4 hPa 0,0 mm 0,3 km/h (0 Bft) W 270 0,5 C 4,1 km/h (1 Bft)
16.10.2015 09:00 2,0 C 2,0 C 90 % 1014,4 hPa 0,0 mm 0,3 km/h (0 Bft) W-SW 247 0,5 C 0,0 km/h (0 Bft)
16.10.2015 09:05 1,9 C 2,1 C 90 % 1014,4 hPa 0,0 mm 1,0 km/h (0 Bft) W 270 0,4 C 3,6 km/h (1 Bft)
16.10.2015 09:08 1,9 C 2,1 C 90 % 1014,4 hPa 0,0 mm 1,0 km/h (0 Bft) W 270 0,4 C 3,6 km/h (1 Bft)
16.10.2015 09:10 2,1 C 2,1 C 90 % 1014,5 hPa 0,0 mm 1,6 km/h (1 Bft) NW 315 0,6 C 3,1 km/h (1 Bft)
16.10.2015 09:15 2,2 C 2,5 C 90 % 1014,5 hPa 0,0 mm 1,0 km/h (0 Bft) W-NW 292 0,7 C 0,0 km/h (0 Bft)
16.10.2015 09:20 2,3 C 2,7 C 90 % 1014,5 hPa 0,0 mm 0,3 km/h (0 Bft) NW 315 0,8 C 0,0 km/h (0 Bft)
16.10.2015 09:25 2,3 C 2,7 C 90 % 1014,5 hPa 0,0 mm 0,0 km/h (0 Bft) W-SW 247 0,8 C 0,0 km/h (0 Bft)
16.10.2015 09:30 2,3 C 2,7 C 90 % 1014,8 hPa 0,0 mm 0,3 km/h (0 Bft) NW 315 0,8 C 2,8 km/h (1 Bft)
16.10.2015 09:35 2,4 C 2,6 C 90 % 1014,8 hPa 0,0 mm 1,0 km/h (0 Bft) NW 315 0,9 C 5,2 km/h (1 Bft)
16.10.2015 09:40 2,4 C 2,6 C 90 % 1014,8 hPa 0,0 mm 1,6 km/h (1 Bft) N-NW 337 0,9 C 0,0 km/h (0 Bft)
16.10.2015 09:45 2,5 C 2,6 C 90 % 1014,8 hPa 0,0 mm 2,6 km/h (1 Bft) W-NW 292 1,0 C 3,9 km/h (1 Bft)
16.10.2015 09:50 2,5 C 2,6 C 90 % 1014,9 hPa 0,0 mm 2,3 km/h (1 Bft) NW 315 1,0 C 0,0 km/h (0 Bft)
16.10.2015 09:55 2,5 C 2,7 C 90 % 1014,9 hPa 0,0 mm 2,1 km/h (1 Bft) NW 315 1,0 C 3,4 km/h (1 Bft)
16.10.2015 10:00 2,5 C 2,7 C 90 % 1014,9 hPa 0,0 mm 2,3 km/h (1 Bft) N-NO 22 1,0 C 5,4 km/h (1 Bft)
16.10.2015 10:05 2,6 C 2,7 C 90 % 1014,9 hPa 0,0 mm 2,6 km/h (1 Bft) N-NW 337 1,1 C 4,4 km/h (1 Bft)
16.10.2015 10:10 2,7 C 2,8 C 90 % 1015,1 hPa 0,0 mm 2,8 km/h (1 Bft) NW 315 1,2 C 4,1 km/h (1 Bft)
16.10.2015 10:15 2,7 C 2,9 C 90 % 1015,1 hPa 0,0 mm 2,3 km/h (1 Bft) NW 315 1,2 C 0,0 km/h (0 Bft)
16.10.2015 10:20 2,7 C 2,9 C 90 % 1015,1 hPa 0,0 mm 1,6 km/h (1 Bft) N-NW 337 1,2 C 0,0 km/h (0 Bft)
16.10.2015 10:25 2,7 C 2,8 C 90 % 1015,1 hPa 0,0 mm 0,8 km/h (0 Bft) W 270 1,2 C 4,9 km/h (1 Bft)
16.10.2015 10:30 2,7 C 2,8 C 90 % 1015,4 hPa 0,0 mm 1,6 km/h (1 Bft) NW 315 1,2 C 4,4 km/h (1 Bft)
16.10.2015 10:35 2,7 C 3,1 C 90 % 1015,4 hPa 0,0 mm 2,8 km/h (1 Bft) N-NW 337 1,2 C 3,1 km/h (1 Bft)
16.10.2015 10:40 2,9 C 3,2 C 90 % 1015,4 hPa 0,0 mm 2,1 km/h (1 Bft) N-NW 337 1,4 C 0,0 km/h (0 Bft)
16.10.2015 10:45 3,1 C 3,4 C 89 % 1015,4 hPa 0,0 mm 2,3 km/h (1 Bft) W-NW 292 1,5 C 2,8 km/h (1 Bft)
16.10.2015 10:50 3,1 C 3,5 C 89 % 1015,2 hPa 0,0 mm 3,1 km/h (1 Bft) NW 315 1,5 C 9,3 km/h (2 Bft)
16.10.2015 10:55 3,2 C 3,6 C 89 % 1015,2 hPa 0,0 mm 3,6 km/h (1 Bft) N-NW 337 1,6 C 4,1 km/h (1 Bft)
16.10.2015 11:00 3,2 C 3,7 C 89 % 1015,2 hPa 0,0 mm 3,6 km/h (1 Bft) NW 315 1,6 C 3,1 km/h (1 Bft)
16.10.2015 11:05 3,3 C 3,6 C 89 % 1015,2 hPa 0,0 mm 3,4 km/h (1 Bft) N-NO 22 1,7 C 0,0 km/h (0 Bft)
16.10.2015 11:10 3,3 C 3,6 C 89 % 1015,4 hPa 0,0 mm 3,4 km/h (1 Bft) NW 315 1,7 C 9,6 km/h (2 Bft)
16.10.2015 11:15 3,2 C 3,5 C 89 % 1015,4 hPa 0,0 mm 3,9 km/h (1 Bft) S-SW 202 1,6 C 4,4 km/h (1 Bft)
16.10.2015 11:20 3,2 C 3,4 C 89 % 1015,4 hPa 0,0 mm 4,4 km/h (1 Bft) NW 315 1,6 C 0,0 km/h (0 Bft)
16.10.2015 11:25 3,2 C 3,4 C 89 % 1015,4 hPa 0,0 mm 3,1 km/h (1 Bft) NW 315 1,6 C 2,6 km/h (1 Bft)
16.10.2015 11:30 3,2 C 3,5 C 89 % 1015,4 hPa 0,0 mm 2,6 km/h (1 Bft) NW 315 1,6 C 3,9 km/h (1 Bft)
16.10.2015 11:35 3,1 C 3,3 C 89 % 1015,4 hPa 0,0 mm 3,4 km/h (1 Bft) N-NW 337 1,5 C 7,8 km/h (2 Bft)
16.10.2015 11:40 3,1 C 3,2 C 89 % 1015,4 hPa 0,0 mm 4,1 km/h (1 Bft) N-NW 337 1,5 C 5,7 km/h (1 Bft)
16.10.2015 11:45 3,1 C 3,2 C 89 % 1015,4 hPa 0,0 mm 3,9 km/h (1 Bft) N-NW 337 1,5 C 6,5 km/h (2 Bft)
16.10.2015 11:50 3,1 C 3,1 C 89 % 1015,6 hPa 0,0 mm 3,9 km/h (1 Bft) N-NO 22 1,5 C 3,1 km/h (1 Bft)
16.10.2015 11:55 3,0 C 3,0 C 89 % 1015,6 hPa 0,0 mm 3,9 km/h (1 Bft) N-NO 22 1,4 C 0,0 km/h (0 Bft)
16.10.2015 12:00 3,0 C 3,0 C 89 % 1015,6 hPa 0,0 mm 2,1 km/h (1 Bft) W 270 1,4 C 4,4 km/h (1 Bft)
16.10.2015 12:05 3,0 C 3,0 C 89 % 1015,6 hPa 0,0 mm 2,6 km/h (1 Bft) N-NW 337 1,4 C 6,2 km/h (2 Bft)
16.10.2015 12:10 3,0 C 3,0 C 89 % 1015,5 hPa 0,0 mm 3,9 km/h (1 Bft) NW 315 1,4 C 5,7 km/h (1 Bft)
16.10.2015 12:15 3,1 C 3,1 C 89 % 1015,5 hPa 0,0 mm 4,1 km/h (1 Bft) N-NW 337 1,5 C 6,5 km/h (2 Bft)
16.10.2015 12:20 3,0 C 3,1 C 89 % 1015,5 hPa 0,0 mm 3,6 km/h (1 Bft) N-NW 337 1,4 C 4,4 km/h (1 Bft)
16.10.2015 12:25 3,1 C 3,2 C 89 % 1015,5 hPa 0,0 mm 3,1 km/h (1 Bft) N-NO 22 1,5 C 4,7 km/h (1 Bft)
16.10.2015 12:30 3,1 C 3,2 C 89 % 1015,6 hPa 0,0 mm 2,6 km/h (1 Bft) N-NW 337 1,5 C 2,6 km/h (1 Bft)
16.10.2015 12:35 3,1 C 3,3 C 89 % 1015,6 hPa 0,0 mm 2,6 km/h (1 Bft) N 360 1,5 C 4,1 km/h (1 Bft)
16.10.2015 12:40 3,2 C 3,3 C 89 % 1015,6 hPa 0,0 mm 2,6 km/h (1 Bft) N-NW 337 1,6 C 2,6 km/h (1 Bft)
16.10.2015 12:45 3,2 C 3,3 C 89 % 1015,6 hPa 0,0 mm 2,6 km/h (1 Bft) NW 315 1,6 C 6,7 km/h (2 Bft)
16.10.2015 12:50 3,1 C 3,3 C 89 % 1015,4 hPa 0,0 mm 3,4 km/h (1 Bft) N-NW 337 1,5 C 0,0 km/h (0 Bft)
16.10.2015 12:55 3,2 C 3,4 C 89 % 1015,4 hPa 0,0 mm 3,6 km/h (1 Bft) NW 315 1,6 C 6,0 km/h (2 Bft)
16.10.2015 13:00 3,2 C 3,4 C 89 % 1015,4 hPa 0,0 mm 2,3 km/h (1 Bft) NW 315 1,6 C 3,9 km/h (1 Bft)
16.10.2015 13:05 3,2 C 3,3 C 89 % 1015,4 hPa 0,0 mm 2,6 km/h (1 Bft) NW 315 1,6 C 2,6 km/h (1 Bft)
16.10.2015 13:10 3,1 C 3,3 C 89 % 1015,4 hPa 0,0 mm 2,6 km/h (1 Bft) N-NO 22 1,5 C 3,1 km/h (1 Bft)
16.10.2015 13:15 3,1 C 3,3 C 89 % 1015,4 hPa 0,0 mm 2,8 km/h (1 Bft) N-NW 337 1,5 C 8,5 km/h (2 Bft)
16.10.2015 13:20 3,1 C 3,3 C 89 % 1015,4 hPa 0,0 mm 3,9 km/h (1 Bft) N-NW 337 1,5 C 3,6 km/h (1 Bft)
16.10.2015 13:25 3,1 C 3,2 C 89 % 1015,4 hPa 0,0 mm 4,9 km/h (1 Bft) NW 315 1,5 C 9,3 km/h (2 Bft)
16.10.2015 13:30 3,1 C 3,2 C 89 % 1015,2 hPa 0,0 mm 4,4 km/h (1 Bft) N-NW 337 1,5 C 0,0 km/h (0 Bft)
16.10.2015 13:35 3,1 C 3,3 C 89 % 1015,2 hPa 0,0 mm 4,1 km/h (1 Bft) W 270 1,5 C 6,0 km/h (2 Bft)
16.10.2015 13:40 3,0 C 3,2 C 89 % 1015,2 hPa 0,0 mm 3,1 km/h (1 Bft) W 270 1,4 C 0,0 km/h (0 Bft)
16.10.2015 13:45 3,1 C 3,4 C 88 % 1015,2 hPa 0,0 mm 1,6 km/h (1 Bft) W 270 1,3 C 0,0 km/h (0 Bft)
16.10.2015 13:50 3,2 C 3,6 C 89 % 1015,5 hPa 0,0 mm 0,3 km/h (0 Bft) W-NW 292 1,6 C 0,0 km/h (0 Bft)
16.10.2015 13:55 3,3 C 3,8 C 89 % 1015,5 hPa 0,0 mm 0,0 km/h (0 Bft) N-NW 337 1,7 C 0,0 km/h (0 Bft)
16.10.2015 14:00 3,4 C 4,0 C 89 % 1015,5 hPa 0,0 mm 0,3 km/h (0 Bft) N-NW 337 1,8 C 3,6 km/h (1 Bft)
16.10.2015 14:05 3,4 C 4,0 C 88 % 1015,5 hPa 0,0 mm 0,8 km/h (0 Bft) W-NW 292 1,6 C 2,6 km/h (1 Bft)
16.10.2015 14:10 3,4 C 4,0 C 88 % 1015,3 hPa 0,0 mm 1,3 km/h (1 Bft) NW 315 1,6 C 3,6 km/h (1 Bft)
16.10.2015 14:15 3,5 C 4,2 C 88 % 1015,3 hPa 0,0 mm 1,6 km/h (1 Bft) N-NO 22 1,7 C 4,7 km/h (1 Bft)
16.10.2015 14:20 3,5 C 4,2 C 88 % 1015,3 hPa 0,0 mm 1,8 km/h (1 Bft) NO 45 1,7 C 4,9 km/h (1 Bft)
16.10.2015 14:25 3,4 C 3,9 C 88 % 1015,3 hPa 0,0 mm 2,3 km/h (1 Bft) NO 45 1,6 C 5,2 km/h (1 Bft)
16.10.2015 14:30 3,4 C 3,8 C 88 % 1015,2 hPa 0,0 mm 1,8 km/h (1 Bft) N-NW 337 1,6 C 3,6 km/h (1 Bft)
16.10.2015 14:35 3,4 C 3,8 C 88 % 1015,2 hPa 0,0 mm 0,5 km/h (0 Bft) NO 45 1,6 C 0,0 km/h (0 Bft)
16.10.2015 14:40 3,4 C 3,8 C 88 % 1015,2 hPa 0,0 mm 0,8 km/h (0 Bft) NO 45 1,6 C 2,6 km/h (1 Bft)
16.10.2015 14:45 3,4 C 3,7 C 88 % 1015,2 hPa 0,0 mm 0,5 km/h (0 Bft) NW 315 1,6 C 0,0 km/h (0 Bft)
16.10.2015 14:50 3,4 C 3,7 C 88 % 1015,2 hPa 0,0 mm 0,3 km/h (0 Bft) N 360 1,6 C 0,0 km/h (0 Bft)
16.10.2015 14:55 3,4 C 3,6 C 88 % 1015,2 hPa 0,0 mm 1,6 km/h (1 Bft) O-SO 112 1,6 C 0,0 km/h (0 Bft)
16.10.2015 15:00 3,4 C 3,6 C 88 % 1015,2 hPa 0,0 mm 1,8 km/h (1 Bft) NW 315 1,6 C 0,0 km/h (0 Bft)
16.10.2015 15:05 3,4 C 3,7 C 88 % 1015,2 hPa 0,0 mm 0,8 km/h (0 Bft) N-NO 22 1,6 C 0,0 km/h (0 Bft)
16.10.2015 15:10 3,4 C 3,7 C 88 % 1015,2 hPa 0,0 mm 0,3 km/h (0 Bft) NW 315 1,6 C 0,0 km/h (0 Bft)
16.10.2015 15:15 3,4 C 3,8 C 88 % 1015,2 hPa 0,0 mm 0,0 km/h (0 Bft) W-NW 292 1,6 C 0,0 km/h (0 Bft)
16.10.2015 15:20 3,4 C 3,8 C 88 % 1015,2 hPa 0,0 mm 0,0 km/h (0 Bft) NW 315 1,6 C 0,0 km/h (0 Bft)
16.10.2015 15:25 3,5 C 4,0 C 88 % 1015,2 hPa 0,0 mm 0,0 km/h (0 Bft) S 180 1,7 C 0,0 km/h (0 Bft)
16.10.2015 15:30 3,5 C 4,0 C 88 % 1015,2 hPa 0,0 mm 0,0 km/h (0 Bft) S 180 1,7 C 0,0 km/h (0 Bft)
16.10.2015 15:35 3,4 C 3,9 C 88 % 1015,2 hPa 0,0 mm 0,0 km/h (0 Bft) S-SW 202 1,6 C 0,0 km/h (0 Bft)
16.10.2015 15:40 3,4 C 3,9 C 88 % 1015,2 hPa 0,0 mm 0,3 km/h (0 Bft) W-SW 247 1,6 C 0,0 km/h (0 Bft)
16.10.2015 15:45 3,4 C 3,8 C 88 % 1015,2 hPa 0,0 mm 0,5 km/h (0 Bft) W-SW 247 1,6 C 0,0 km/h (0 Bft)
16.10.2015 15:50 3,4 C 3,7 C 88 % 1015,4 hPa 0,0 mm 0,3 km/h (0 Bft) W-SW 247 1,6 C 0,0 km/h (0 Bft)
16.10.2015 15:55 3,5 C 3,8 C 88 % 1015,4 hPa 0,0 mm 0,0 km/h (0 Bft) W-SW 247 1,7 C 0,0 km/h (0 Bft)
16.10.2015 16:00 3,5 C 3,8 C 88 % 1015,4 hPa 0,0 mm 0,0 km/h (0 Bft) N-NW 337 1,7 C 0,0 km/h (0 Bft)
16.10.2015 16:05 3,6 C 3,9 C 88 % 1015,4 hPa 0,0 mm 0,3 km/h (0 Bft) W-NW 292 1,8 C 0,0 km/h (0 Bft)
16.10.2015 16:10 3,6 C 3,8 C 88 % 1015,3 hPa 0,0 mm 0,3 km/h (0 Bft) W 270 1,8 C 0,0 km/h (0 Bft)
16.10.2015 16:15 3,6 C 3,8 C 88 % 1015,3 hPa 0,0 mm 0,3 km/h (0 Bft) SW 225 1,8 C 0,0 km/h (0 Bft)
16.10.2015 16:20 3,5 C 3,8 C 88 % 1015,3 hPa 0,0 mm 0,3 km/h (0 Bft) S-SW 202 1,7 C 3,9 km/h (1 Bft)
16.10.2015 16:25 3,5 C 3,7 C 87 % 1015,3 hPa 0,0 mm 1,0 km/h (0 Bft) S 180 1,5 C 0,0 km/h (0 Bft)
16.10.2015 16:30 3,4 C 3,6 C 87 % 1015,5 hPa 0,0 mm 1,8 km/h (1 Bft) SW 225 1,4 C 3,1 km/h (1 Bft)
16.10.2015 16:35 3,4 C 3,5 C 87 % 1015,5 hPa 0,0 mm 1,6 km/h (1 Bft) S 180 1,4 C 3,1 km/h (1 Bft)
16.10.2015 16:40 3,3 C 3,5 C 88 % 1015,5 hPa 0,0 mm 1,3 km/h (1 Bft) S 180 1,5 C 2,6 km/h (1 Bft)
16.10.2015 16:45 3,4 C 3,7 C 88 % 1015,5 hPa 0,0 mm 0,5 km/h (0 Bft) S 180 1,6 C 0,0 km/h (0 Bft)
16.10.2015 16:50 3,4 C 3,8 C 88 % 1015,5 hPa 0,0 mm 0,0 km/h (0 Bft) NW 315 1,6 C 0,0 km/h (0 Bft)
16.10.2015 16:55 3,5 C 3,9 C 87 % 1015,5 hPa 0,0 mm 0,0 km/h (0 Bft) W 270 1,5 C 0,0 km/h (0 Bft)
16.10.2015 17:00 3,5 C 3,9 C 87 % 1015,5 hPa 0,0 mm 0,3 km/h (0 Bft) W-SW 247 1,5 C 0,0 km/h (0 Bft)
16.10.2015 17:05 3,5 C 3,8 C 87 % 1015,5 hPa 0,0 mm 0,3 km/h (0 Bft) SW 225 1,5 C 0,0 km/h (0 Bft)
16.10.2015 17:10 3,5 C 3,8 C 87 % 1015,5 hPa 0,0 mm 0,0 km/h (0 Bft) SW 225 1,5 C 0,0 km/h (0 Bft)
16.10.2015 17:15 3,5 C 3,7 C 88 % 1015,5 hPa 0,0 mm 0,5 km/h (0 Bft) W 270 1,7 C 0,0 km/h (0 Bft)
16.10.2015 17:20 3,5 C 3,7 C 87 % 1015,5 hPa 0,0 mm 1,3 km/h (1 Bft) W 270 1,5 C 5,4 km/h (1 Bft)
16.10.2015 17:25 3,5 C 3,7 C 87 % 1015,5 hPa 0,0 mm 2,6 km/h (1 Bft) W 270 1,5 C 4,7 km/h (1 Bft)
16.10.2015 17:30 3,5 C 3,6 C 87 % 1015,5 hPa 0,0 mm 2,6 km/h (1 Bft) W-NW 292 1,5 C 0,0 km/h (0 Bft)
16.10.2015 17:35 3,5 C 3,6 C 87 % 1015,5 hPa 0,0 mm 1,6 km/h (1 Bft) W 270 1,5 C 0,0 km/h (0 Bft)
16.10.2015 17:40 3,5 C 3,6 C 87 % 1015,5 hPa 0,0 mm 1,0 km/h (0 Bft) S 180 1,5 C 4,4 km/h (1 Bft)
16.10.2015 17:45 3,5 C 3,5 C 87 % 1015,5 hPa 0,0 mm 1,3 km/h (1 Bft) W-SW 247 1,5 C 6,2 km/h (2 Bft)
16.10.2015 17:50 3,4 C 3,4 C 87 % 1015,4 hPa 0,0 mm 1,8 km/h (1 Bft) W-NW 292 1,4 C 0,0 km/h (0 Bft)
16.10.2015 17:55 3,4 C 3,4 C 87 % 1015,4 hPa 0,0 mm 1,8 km/h (1 Bft) W-SW 247 1,4 C 0,0 km/h (0 Bft)
16.10.2015 18:00 3,3 C 3,3 C 87 % 1015,4 hPa 0,0 mm 1,6 km/h (1 Bft) S 180 1,3 C 4,1 km/h (1 Bft)
16.10.2015 18:05 3,3 C 3,2 C 88 % 1015,4 hPa 0,0 mm 1,3 km/h (1 Bft) S-SW 202 1,5 C 0,0 km/h (0 Bft)
16.10.2015 18:10 3,2 C 3,1 C 88 % 1015,5 hPa 0,0 mm 1,3 km/h (1 Bft) S 180 1,4 C 0,0 km/h (0 Bft)
16.10.2015 18:15 3,2 C 3,1 C 88 % 1015,5 hPa 0,0 mm 0,8 km/h (0 Bft) S-SW 202 1,4 C 0,0 km/h (0 Bft)
16.10.2015 18:20 3,1 C 3,1 C 87 % 1015,5 hPa 0,0 mm 0,5 km/h (0 Bft) NW 315 1,2 C 0,0 km/h (0 Bft)
16.10.2015 18:25 3,1 C 3,0 C 88 % 1015,5 hPa 0,0 mm 0,3 km/h (0 Bft) SW 225 1,3 C 0,0 km/h (0 Bft)
16.10.2015 18:30 3,1 C 3,0 C 88 % 1015,7 hPa 0,0 mm 0,0 km/h (0 Bft) SW 225 1,3 C 0,0 km/h (0 Bft)
16.10.2015 18:35 3,0 C 2,9 C 88 % 1015,7 hPa 0,0 mm 0,0 km/h (0 Bft) SW 225 1,2 C 0,0 km/h (0 Bft)
16.10.2015 18:40 3,0 C 2,9 C 88 % 1015,7 hPa 0,0 mm 0,0 km/h (0 Bft) S 180 1,2 C 0,0 km/h (0 Bft)
16.10.2015 18:45 3,0 C 2,9 C 88 % 1015,7 hPa 0,0 mm 0,0 km/h (0 Bft) SW 225 1,2 C 0,0 km/h (0 Bft)
16.10.2015 18:50 3,0 C 2,8 C 88 % 1016,1 hPa 0,0 mm 0,0 km/h (0 Bft) W 270 1,2 C 0,0 km/h (0 Bft)
16.10.2015 18:55 3,0 C 2,8 C 89 % 1016,1 hPa 0,0 mm 0,0 km/h (0 Bft) W-SW 247 1,4 C 0,0 km/h (0 Bft)
16.10.2015 19:00 3,0 C 2,8 C 89 % 1016,1 hPa 0,0 mm 0,5 km/h (0 Bft) S 180 1,4 C 0,0 km/h (0 Bft)
16.10.2015 19:05 3,0 C 2,8 C 89 % 1016,1 hPa 0,0 mm 0,8 km/h (0 Bft) S 180 1,4 C 0,0 km/h (0 Bft)
16.10.2015 19:10 3,0 C 2,8 C 89 % 1015,9 hPa 0,0 mm 0,8 km/h (0 Bft) S-SW 202 1,4 C 2,6 km/h (1 Bft)
16.10.2015 19:15 3,0 C 2,9 C 89 % 1015,9 hPa 0,0 mm 0,5 km/h (0 Bft) SW 225 1,4 C 0,0 km/h (0 Bft)
16.10.2015 19:20 3,0 C 2,9 C 89 % 1015,9 hPa 0,0 mm 0,5 km/h (0 Bft) S-SW 202 1,4 C 2,6 km/h (1 Bft)
16.10.2015 19:25 2,9 C 2,8 C 89 % 1015,9 hPa 0,0 mm 0,8 km/h (0 Bft) N 360 1,3 C 0,0 km/h (0 Bft)
16.10.2015 19:30 2,9 C 2,8 C 89 % 1016,1 hPa 0,0 mm 0,5 km/h (0 Bft) SW 225 1,3 C 0,0 km/h (0 Bft)
16.10.2015 19:35 2,9 C 2,8 C 89 % 1016,1 hPa 0,0 mm 0,3 km/h (0 Bft) S 180 1,3 C 0,0 km/h (0 Bft)
16.10.2015 19:40 3,0 C 2,8 C 89 % 1016,1 hPa 0,0 mm 0,8 km/h (0 Bft) W-SW 247 1,4 C 3,9 km/h (1 Bft)
16.10.2015 19:45 3,0 C 2,8 C 89 % 1016,1 hPa 0,0 mm 2,1 km/h (1 Bft) W-SW 247 1,4 C 2,8 km/h (1 Bft)
16.10.2015 19:50 3,0 C 2,8 C 89 % 1016,2 hPa 0,0 mm 2,8 km/h (1 Bft) S 180 1,4 C 4,1 km/h (1 Bft)
16.10.2015 19:54 3,0 C 2,8 C 89 % 1016,2 hPa 0,0 mm 2,8 km/h (1 Bft) S 180 1,4 C 4,1 km/h (1 Bft)
16.10.2015 19:55 3,0 C 2,8 C 89 % 1016,2 hPa 0,0 mm 3,6 km/h (1 Bft) SW 225 1,4 C 6,7 km/h (2 Bft)
16.10.2015 20:00 3,0 C 2,9 C 89 % 1016,2 hPa 0,0 mm 4,4 km/h (1 Bft) SW 225 1,4 C 6,0 km/h (2 Bft)
16.10.2015 20:05 3,0 C 2,8 C 89 % 1016,2 hPa 0,0 mm 4,9 km/h (1 Bft) SW 225 1,4 C 7,3 km/h (2 Bft)
16.10.2015 20:10 3,0 C 2,8 C 89 % 1016,1 hPa 0,0 mm 4,9 km/h (1 Bft) SW 225 1,4 C 5,7 km/h (1 Bft)
16.10.2015 20:15 3,0 C 2,8 C 89 % 1016,1 hPa 0,0 mm 4,9 km/h (1 Bft) S 180 1,4 C 5,4 km/h (1 Bft)
16.10.2015 20:20 3,0 C 2,9 C 89 % 1016,1 hPa 0,0 mm 4,1 km/h (1 Bft) W-SW 247 1,4 C 5,4 km/h (1 Bft)
16.10.2015 20:25 3,0 C 2,9 C 89 % 1016,1 hPa 0,0 mm 3,9 km/h (1 Bft) S-SW 202 1,4 C 4,7 km/h (1 Bft)
16.10.2015 20:30 3,0 C 2,9 C 89 % 1016,3 hPa 0,0 mm 3,9 km/h (1 Bft) S 180 1,4 C 0,0 km/h (0 Bft)
16.10.2015 20:35 3,0 C 2,9 C 89 % 1016,3 hPa 0,0 mm 2,6 km/h (1 Bft) S 180 1,4 C 0,0 km/h (0 Bft)
16.10.2015 20:40 3,0 C 2,9 C 89 % 1016,3 hPa 0,0 mm 2,3 km/h (1 Bft) SW 225 1,4 C 4,1 km/h (1 Bft)
16.10.2015 20:45 3,0 C 2,9 C 89 % 1016,3 hPa 0,0 mm 2,3 km/h (1 Bft) S-SW 202 1,4 C 5,4 km/h (1 Bft)
16.10.2015 20:50 3,0 C 2,9 C 89 % 1016,2 hPa 0,0 mm 2,8 km/h (1 Bft) SW 225 1,4 C 2,8 km/h (1 Bft)
16.10.2015 20:55 2,9 C 2,8 C 89 % 1016,2 hPa 0,0 mm 2,1 km/h (1 Bft) SW 225 1,3 C 0,0 km/h (0 Bft)
16.10.2015 21:00 2,9 C 2,8 C 89 % 1016,2 hPa 0,0 mm 2,6 km/h (1 Bft) S 180 1,3 C 10,4 km/h (2 Bft)
16.10.2015 21:05 2,9 C 2,8 C 90 % 1016,2 hPa 0,0 mm 3,9 km/h (1 Bft) SW 225 1,4 C 6,5 km/h (2 Bft)
16.10.2015 21:10 2,9 C 2,8 C 90 % 1016,3 hPa 0,0 mm 3,9 km/h (1 Bft) S 180 1,4 C 0,0 km/h (0 Bft)
16.10.2015 21:15 2,9 C 2,8 C 90 % 1016,3 hPa 0,0 mm 2,3 km/h (1 Bft) S-SW 202 1,4 C 0,0 km/h (0 Bft)
16.10.2015 21:20 2,9 C 2,8 C 90 % 1016,3 hPa 0,0 mm 1,6 km/h (1 Bft) W 270 1,4 C 3,1 km/h (1 Bft)
16.10.2015 21:25 2,8 C 2,7 C 90 % 1016,3 hPa 0,0 mm 0,0 km/h (0 Bft) S 180 1,3 C 0,0 km/h (0 Bft)
16.10.2015 21:30 2,8 C 2,7 C 90 % 1016,3 hPa 0,0 mm 0,0 km/h (0 Bft) SW 225 1,3 C 0,0 km/h (0 Bft)
16.10.2015 21:35 2,9 C 2,8 C 90 % 1016,3 hPa 0,0 mm 0,0 km/h (0 Bft) S 180 1,4 C 0,0 km/h (0 Bft)
16.10.2015 21:40 2,9 C 2,8 C 90 % 1016,3 hPa 0,0 mm 0,0 km/h (0 Bft) S 180 1,4 C 0,0 km/h (0 Bft)
16.10.2015 21:45 2,9 C 2,7 C 90 % 1016,3 hPa 0,0 mm 0,0 km/h (0 Bft) W 270 1,4 C 0,0 km/h (0 Bft)
16.10.2015 21:50 2,7 C 2,7 C 88 % 1016,4 hPa 0,0 mm 0,0 km/h (0 Bft) S-SW 202 0,9 C 0,0 km/h (0 Bft)
16.10.2015 21:55 2,7 C 2,7 C 88 % 1016,4 hPa 0,0 mm 0,0 km/h (0 Bft) S 180 0,9 C 0,0 km/h (0 Bft)
16.10.2015 22:00 2,7 C 2,7 C 88 % 1016,4 hPa 0,0 mm 0,0 km/h (0 Bft) W-SW 247 0,9 C 0,0 km/h (0 Bft)
16.10.2015 22:05 2,9 C 2,7 C 91 % 1016,4 hPa 0,0 mm 0,5 km/h (0 Bft) SW 225 1,6 C 0,0 km/h (0 Bft)
16.10.2015 22:10 2,9 C 2,8 C 91 % 1016,4 hPa 0,0 mm 0,8 km/h (0 Bft) W-SW 247 1,6 C 0,0 km/h (0 Bft)
16.10.2015 22:15 2,9 C 2,8 C 91 % 1016,4 hPa 0,0 mm 0,3 km/h (0 Bft) W 270 1,6 C 0,0 km/h (0 Bft)
16.10.2015 22:20 2,9 C 2,8 C 91 % 1016,4 hPa 0,0 mm 0,0 km/h (0 Bft) W 270 1,6 C 0,0 km/h (0 Bft)
16.10.2015 22:25 2,7 C 2,7 C 88 % 1016,4 hPa 0,0 mm 0,0 km/h (0 Bft) W 270 0,9 C 0,0 km/h (0 Bft)
16.10.2015 22:30 2,7 C 2,6 C 88 % 1016,6 hPa 0,0 mm 0,0 km/h (0 Bft) W 270 0,9 C 0,0 km/h (0 Bft)
16.10.2015 22:35 2,7 C 2,6 C 88 % 1016,6 hPa 0,0 mm 0,0 km/h (0 Bft) S 180 0,9 C 0,0 km/h (0 Bft)
16.10.2015 22:40 2,7 C 2,6 C 91 % 1016,6 hPa 0,0 mm 0,0 km/h (0 Bft) S 180 1,4 C 0,0 km/h (0 Bft)
16.10.2015 22:45 2,7 C 2,6 C 88 % 1016,6 hPa 0,0 mm 1,6 km/h (1 Bft) S 180 0,9 C 2,8 km/h (1 Bft)
16.10.2015 22:50 2,7 C 2,6 C 88 % 1016,5 hPa 0,0 mm 1,6 km/h (1 Bft) S 180 0,9 C 2,8 km/h (1 Bft)
16.10.2015 22:55 2,6 C 2,6 C 88 % 1016,5 hPa 0,0 mm 0,5 km/h (0 Bft) S 180 0,8 C 0,0 km/h (0 Bft)
16.10.2015 23:00 2,6 C 2,6 C 88 % 1016,5 hPa 0,0 mm 0,3 km/h (0 Bft) N 360 0,8 C 0,0 km/h (0 Bft)
16.10.2015 23:05 2,6 C 2,6 C 88 % 1016,5 hPa 0,0 mm 0,0 km/h (0 Bft) S-SO 157 0,8 C 0,0 km/h (0 Bft)
16.10.2015 23:10 2,6 C 2,6 C 88 % 1016,6 hPa 0,0 mm 0,0 km/h (0 Bft) S-SO 157 0,8 C 0,0 km/h (0 Bft)
16.10.2015 23:15 2,6 C 2,5 C 91 % 1016,6 hPa 0,0 mm 1,0 km/h (0 Bft) S 180 1,3 C 2,6 km/h (1 Bft)
16.10.2015 23:20 2,5 C 2,5 C 88 % 1016,6 hPa 0,0 mm 1,8 km/h (1 Bft) S 180 0,7 C 2,8 km/h (1 Bft)
16.10.2015 23:25 2,5 C 2,4 C 88 % 1016,6 hPa 0,0 mm 0,8 km/h (0 Bft) SO 135 0,7 C 0,0 km/h (0 Bft)
16.10.2015 23:30 2,5 C 2,4 C 88 % 1016,6 hPa 0,0 mm 0,0 km/h (0 Bft) S 180 0,7 C 0,0 km/h (0 Bft)
16.10.2015 23:35 2,5 C 2,4 C 88 % 1016,6 hPa 0,0 mm 1,0 km/h (0 Bft) S-SO 157 0,7 C 3,1 km/h (1 Bft)
16.10.2015 23:40 2,5 C 2,4 C 88 % 1016,6 hPa 0,0 mm 1,8 km/h (1 Bft) S 180 0,7 C 3,4 km/h (1 Bft)
16.10.2015 23:45 2,5 C 2,4 C 88 % 1016,6 hPa 0,0 mm 1,8 km/h (1 Bft) S 180 0,7 C 0,0 km/h (0 Bft)
16.10.2015 23:50 2,5 C 2,4 C 88 % 1016,6 hPa 0,0 mm 1,0 km/h (0 Bft) W-SW 247 0,7 C 3,1 km/h (1 Bft)
16.10.2015 23:55 2,5 C 2,3 C 92 % 1016,6 hPa 0,0 mm 0,5 km/h (0 Bft) S 180 1,3 C 0,0 km/h (0 Bft)
_ Min-Zeit 09:08 08:50 18:20 04:05 - 23:30 - - 09:08 23:55
Minimum _ 1,9 C 1,9 C 87 % 1012,9 hPa - 0,0 km/h (0 Bft) - - 0,4 C 0,0 km/h (0 Bft)
_ Max-Zeit 16:15 14:20 07:20 23:55 08:00 20:15 - - 02:35 05:20
Maximum _ 3,6 C 4,2 C 93 % 1016,6 hPa 0,7 mm 4,9 km/h
S (1 Bft)
- - 2,0 C 12,2 km/h
O (2 Bft)
Durchschnitt _ 3,0 C 3,0 C 89 % 1014,9 hPa #2,7 mm 1,3 km/h (1 Bft) NW - 1,3 C 1,8 km/h (1 Bft)